Weather Roundup
Issued by NWS Chicago, IL

Home | Current Version | Previous Version | Graphics & Text | Print | Product List | Glossary On
Versions: 1 2 3 4 5 6 7 8 9 10 11 12 13 14 15 16 17 18 19 20 21 22 23 24 25 26 27 28 29 30 31 32 33 34 35 36 37 38 39 40 41 42 43 44 45 46 47 48 49 50
000
NZUS59 KLOT 241204
HRRLOT

CHICAGO AREA WEATHER ROUNDUP
NATIONAL WEATHER SERVICE CHICAGO/ROMEOVILLE IL
700 AM CDT WED AUG 24 2016

NOTE: "FAIR" INDICATES FEW OR NO CLOUDS BELOW 12,000 FEET WITH NO
SIGNIFICANT WEATHER AND/OR OBSTRUCTIONS TO VISIBILITY.

* THESE STATIONS ARE NOT UNDER NWS QUALITY CONTROL. THEY ALSO MAY NOT
  REPORT WEATHER SUCH AS PRECIPITATION OR FOG.

ILZ005-006-012>014-019>023-241300-
NORTHEAST ILLINOIS

CITY           SKY/WX    TMP DP  RH WIND       PRES   REMARKS
OHARE          CLOUDY    71  66  84 S13       29.99F
6HR MIN TEMP:  70; 6HR MAX TEMP:  74;

MIDWAY         CLOUDY    72  65  78 S8G20     30.00F
6HR MIN TEMP:  72; 6HR MAX TEMP:  75;

AURORA         LGT RAIN  70  67  90 S9        29.99F FOG
6HR MIN TEMP:  69; 6HR MAX TEMP:  73; 6HR PCP:  0.05;

LANSING*       MOCLDY    71  65  82 S9G16     30.02F
JOLIET*        CLOUDY    71  69  92 S5        30.00S
WAUKEGAN       MOCLDY    73  68  84 S16       29.96F
6HR MIN TEMP:  72; 6HR MAX TEMP:  75;

DUPAGE AIRPORT LGT RAIN  71  67  87 S10       29.99S
6HR MIN TEMP:  70; 6HR MAX TEMP:  73; 6HR PCP: TRACE;

WHEELING       CLOUDY    72  67  84 S12       29.99F
6HR MIN TEMP:  71; 6HR MAX TEMP:  75;

KANKAKEE*      CLOUDY    70  67  91 S12       30.03S
LEWIS AIRPORT* CLOUDY    69  65  88 S7        30.00F
NORTHERLY ISL    N/A     72  65  78 SW14        N/A
$$

WIZ051-052-058>065-066-070>072-241300-
SOUTHEAST WISCONSIN

CITY           SKY/WX    TMP DP  RH WIND       PRES   REMARKS
MILWAUKEE      CLOUDY    74  67  78 S13       29.94F
6HR MIN TEMP:  73; 6HR MAX TEMP:  75;

KENOSHA*       CLOUDY    73  68  84 S16G26    29.96F
RACINE*        CLOUDY    71  65  81 S8        29.97S
BURLINGTON     CLOUDY    70  66  88 S14G21    29.96S
$$

INZ001>003-010>013-019-020-241300-
NORTHWEST INDIANA

CITY           SKY/WX    TMP DP  RH WIND       PRES   REMARKS
GARY*          CLOUDY    72  66  83 S7        30.03S
MICHIGAN CITY* NOT AVBL
RENSSELAER*    NOT AVBL
VALPARAISO     CLOUDY    70  64  81 S8        30.06F
$$

LMZ740>746-241300-
SOUTHERN LAKE MICHIGAN

STATION/POSITION TIME  SKY/WX   TEMP WIND        PRES    VSBY
                                AIR  DIR/SP/G
                 (UTC)          (F)  (DEG/KT/KT) (MB)    (MI)
HARRISON CRIB    1100            72  190/ 17/ 18   N/A
BURNHAM HARBOR   1200            72  200/ 10/ 15   N/A
CALUMET HARBOR   1100            72  170/ 12/ 17 1016.0S
BURNS HARBOR     1104            71  180/ 11/ 22 1017.3F
MICHIGAN CITY    1100            71  150/ 14/ 18   N/A
$$

ABBREVIATIONS USED IN REMARKS
   TC - TEMPERATURE IN CELSIUS
  WCI - WIND CHILL INDEX
   HX - HEAT INDEX
  VSB - VISIBILITY
$$




USA.gov is the U.S. government's official web portal to all federal, state and local government web resources and services.